Retour au catalogue

STARLINK-36815

ActifCommunicationsSSO
NORAD 68313·PAYLOAD·🇺🇸 United States

Lancé Mar 20, 2026 depuis Vandenberg Space Force Base

Loading…

Prochains Passages (prochaines 24 heures)

TLE

FraisSource: CelesTrak SupGP

Époque: Sep 15, 2026, 04:16 UTC

1 68313C 26057V   26258.17826389  .00001628  00000+0  50530-4 0  2589
2 68313  97.2852  23.7226 0000944  84.0555 237.6748 15.33439172    18

Suivez STARLINK-36815 en temps réel avec AllMySat

Download on the App Store